TAM3096 SBSP-SBUL

Flight info

Callsign TAM3096
Flight time 0h 56m
Altitude 34000
Route GERTU UZ25 IVROP
Aircraft A320/M-SDE2FGHIM1RWXYZ/S

Departure

Time 2026-05-06 22:20
Airport Congonhas–Deputado Freitas Nobre Airport (SBSP)

Arrival

Time 2026-05-06 23:16
Airport Ten. Cel. Aviador César Bombonato Airport (SBUL)
Time Latitude Longitude Altitude Speed Heading
2026-05-06 21:58 -23.62658 -46.65866 2601 ft 0 kts 237°
2026-05-06 22:12 -23.62656 -46.65862 2601 ft 4 kts 237°
2026-05-06 22:12 -23.62642 -46.65837 2601 ft 4 kts 256°
2026-05-06 22:12 -23.62645 -46.65818 2601 ft 3 kts 327°
2026-05-06 22:13 -23.62658 -46.65809 2601 ft 0 kts 327°
2026-05-06 22:16 -23.62626 -46.65828 2601 ft 5 kts 340°
2026-05-06 22:16 -23.62578 -46.65818 2602 ft 10 kts
2026-05-06 22:16 -23.62519 -46.65856 2602 ft 9 kts 326°
2026-05-06 22:17 -23.62466 -46.65893 2601 ft 8 kts 328°
2026-05-06 22:17 -23.62420 -46.65924 2601 ft 7 kts 328°
2026-05-06 22:17 -23.62380 -46.65951 2600 ft 6 kts 327°
2026-05-06 22:17 -23.62346 -46.65975 2600 ft 5 kts 327°
2026-05-06 22:18 -23.62319 -46.65994 2600 ft 4 kts 327°
2026-05-06 22:18 -23.62287 -46.66016 2600 ft 10 kts 327°
2026-05-06 22:18 -23.62224 -46.66056 2600 ft 10 kts 330°
2026-05-06 22:18 -23.62162 -46.66095 2599 ft 10 kts 329°
2026-05-06 22:19 -23.62105 -46.66133 2587 ft 9 kts 333°
2026-05-06 22:19 -23.62035 -46.66107 2585 ft 8 kts 59°
2026-05-06 22:19 -23.62044 -46.66078 2588 ft 0 kts 146°
2026-05-06 22:20 -23.62066 -46.66062 2591 ft 20 kts 146°
2026-05-06 22:20 -23.62438 -46.65806 2603 ft 103 kts 148°
2026-05-06 22:20 -23.63225 -46.65262 2669 ft 158 kts 148°
2026-05-06 22:20 -23.64129 -46.64641 3446 ft 151 kts 148°
2026-05-06 22:21 -23.65161 -46.64190 3736 ft 174 kts 179°
2026-05-06 22:21 -23.66419 -46.64412 4073 ft 194 kts 190°
2026-05-06 22:21 -23.67830 -46.64560 4316 ft 220 kts 183°
2026-05-06 22:21 -23.69444 -46.64634 4725 ft 245 kts 182°
2026-05-06 22:22 -23.71234 -46.64701 5251 ft 266 kts 182°
2026-05-06 22:22 -23.73113 -46.64778 6102 ft 273 kts 182°
2026-05-06 22:22 -23.74992 -46.65116 6992 ft 278 kts 204°
2026-05-06 22:22 -23.76509 -46.66418 7884 ft 282 kts 235°
2026-05-06 22:23 -23.77207 -46.68403 8779 ft 285 kts 262°
2026-05-06 22:23 -23.77543 -46.70546 9668 ft 288 kts 254°
2026-05-06 22:23 -23.78368 -46.72573 10323 ft 302 kts 242°
2026-05-06 22:23 -23.79460 -46.74639 10656 ft 325 kts 238°
2026-05-06 22:24 -23.80693 -46.76738 11444 ft 330 kts 237°
2026-05-06 22:24 -23.81981 -46.78822 12290 ft 333 kts 236°
2026-05-06 22:24 -23.83297 -46.80921 13085 ft 337 kts 236°
2026-05-06 22:24 -23.84624 -46.83048 13859 ft 341 kts 237°
2026-05-06 22:25 -23.85664 -46.85380 14577 ft 345 kts 252°
2026-05-06 22:25 -23.86072 -46.87964 15268 ft 348 kts 269°
2026-05-06 22:25 -23.85789 -46.90600 15940 ft 352 kts 285°
2026-05-06 22:25 -23.84839 -46.93068 16599 ft 356 kts 300°
2026-05-06 22:26 -23.83566 -46.95396 17272 ft 359 kts 301°
2026-05-06 22:26 -23.82295 -46.97719 17917 ft 363 kts 301°
2026-05-06 22:26 -23.80998 -47.00099 18568 ft 366 kts 300°
2026-05-06 22:26 -23.79692 -47.02504 19179 ft 370 kts 300°
2026-05-06 22:27 -23.78375 -47.04932 19774 ft 374 kts 300°
2026-05-06 22:27 -23.77046 -47.07386 20367 ft 377 kts 300°
2026-05-06 22:27 -23.75535 -47.09736 20927 ft 381 kts 311°
2026-05-06 22:27 -23.73581 -47.11693 21471 ft 384 kts 324°
2026-05-06 22:28 -23.71251 -47.13145 22004 ft 388 kts 337°
2026-05-06 22:28 -23.68663 -47.14012 22521 ft 391 kts 348°
2026-05-06 22:28 -23.65981 -47.14593 23034 ft 394 kts 348°
2026-05-06 22:28 -23.63280 -47.15175 23530 ft 397 kts 348°
2026-05-06 22:29 -23.60557 -47.15765 24029 ft 400 kts 348°
2026-05-06 22:29 -23.57814 -47.16366 24502 ft 403 kts 348°
2026-05-06 22:29 -23.55054 -47.16977 24954 ft 406 kts 348°
2026-05-06 22:29 -23.52280 -47.17591 25391 ft 409 kts 348°
2026-05-06 22:30 -23.50426 -47.17999 25690 ft 411 kts 348°
2026-05-06 22:30 -23.46662 -47.18825 26276 ft 414 kts 348°
2026-05-06 22:30 -23.44790 -47.19236 26557 ft 416 kts 348°
2026-05-06 22:30 -23.41942 -47.19860 26969 ft 418 kts 348°
2026-05-06 22:31 -23.39081 -47.20484 27370 ft 421 kts 348°
2026-05-06 22:31 -23.36201 -47.21111 27755 ft 424 kts 348°
2026-05-06 22:31 -23.33300 -47.21744 28146 ft 426 kts 348°
2026-05-06 22:31 -23.30382 -47.22382 28522 ft 428 kts 348°
2026-05-06 22:32 -23.27454 -47.23023 28893 ft 431 kts 348°
2026-05-06 22:32 -23.24507 -47.23669 29243 ft 433 kts 348°
2026-05-06 22:32 -23.21546 -47.24316 29595 ft 436 kts 348°
2026-05-06 22:32 -23.18567 -47.24967 29949 ft 438 kts 348°
2026-05-06 22:33 -23.15573 -47.25619 30304 ft 440 kts 348°
2026-05-06 22:33 -23.12566 -47.26271 30633 ft 442 kts 348°
2026-05-06 22:33 -23.09539 -47.26926 30951 ft 444 kts 348°
2026-05-06 22:33 -23.06497 -47.27584 31260 ft 446 kts 348°
2026-05-06 22:34 -23.03487 -47.28240 31563 ft 448 kts 348°
2026-05-06 22:34 -23.00437 -47.28904 31972 ft 447 kts 348°
2026-05-06 22:34 -22.97391 -47.29563 32382 ft 446 kts 348°
2026-05-06 22:34 -22.94353 -47.30219 32782 ft 445 kts 348°
2026-05-06 22:35 -22.91322 -47.30874 33184 ft 444 kts 348°
2026-05-06 22:35 -22.88292 -47.31532 33558 ft 443 kts 348°
2026-05-06 22:35 -22.85266 -47.32191 33904 ft 444 kts 348°
2026-05-06 22:35 -22.82246 -47.32851 33993 ft 439 kts 348°
2026-05-06 22:36 -22.76376 -47.34124 34009 ft 424 kts 348°
2026-05-06 22:36 -22.70610 -47.35383 34008 ft 422 kts 346°
2026-05-06 22:37 -22.65219 -47.37784 34010 ft 420 kts 327°
2026-05-06 22:37 -22.60547 -47.41606 34009 ft 421 kts 322°
2026-05-06 22:38 -22.55948 -47.45463 34009 ft 421 kts 322°
2026-05-06 22:38 -22.51307 -47.49337 34007 ft 421 kts 322°
2026-05-06 22:39 -22.46662 -47.53208 34006 ft 422 kts 322°
2026-05-06 22:39 -22.41536 -47.56225 34009 ft 421 kts 342°
2026-05-06 22:40 -22.35792 -47.57454 34011 ft 421 kts 351°
2026-05-06 22:40 -22.30001 -47.58423 34008 ft 421 kts 351°
2026-05-06 22:41 -22.21311 -47.59895 34008 ft 422 kts 351°
2026-05-06 22:42 -22.15514 -47.60864 34006 ft 422 kts 351°
2026-05-06 22:42 -22.09710 -47.61824 34005 ft 422 kts 351°
2026-05-06 22:43 -22.03903 -47.62792 34003 ft 422 kts 351°
2026-05-06 22:43 -21.98096 -47.63766 34000 ft 423 kts 351°
2026-05-06 22:44 -21.92282 -47.64748 34008 ft 423 kts 351°
2026-05-06 22:44 -21.86469 -47.65720 34011 ft 422 kts 351°
2026-05-06 22:45 -21.80700 -47.66674 34011 ft 422 kts 351°
2026-05-06 22:45 -21.74891 -47.67643 34018 ft 422 kts 351°
2026-05-06 22:46 -21.69092 -47.68614 34020 ft 422 kts 351°
2026-05-06 22:46 -21.63288 -47.69575 34019 ft 422 kts 351°
2026-05-06 22:47 -21.57480 -47.70533 34018 ft 422 kts 351°
2026-05-06 22:47 -21.51679 -47.71486 34016 ft 422 kts 351°
2026-05-06 22:48 -21.45881 -47.72438 34016 ft 422 kts 351°
2026-05-06 22:48 -21.40119 -47.73376 34015 ft 421 kts 351°
2026-05-06 22:49 -21.34319 -47.74318 34013 ft 422 kts 351°
2026-05-06 22:49 -21.28518 -47.75274 34011 ft 422 kts 351°
2026-05-06 22:50 -21.22718 -47.76225 34011 ft 422 kts 351°
2026-05-06 22:50 -21.16911 -47.77190 34018 ft 422 kts 351°
2026-05-06 22:51 -21.11098 -47.78066 34017 ft 421 kts 352°
2026-05-06 22:51 -21.05281 -47.78848 34015 ft 421 kts 353°
2026-05-06 22:52 -20.99444 -47.79616 34013 ft 433 kts 353°
2026-05-06 22:52 -20.93333 -47.80438 34010 ft 450 kts 352°
2026-05-06 22:53 -20.87049 -47.81303 34008 ft 456 kts 352°
2026-05-06 22:53 -20.80757 -47.82160 34007 ft 456 kts 352°
2026-05-06 22:54 -20.74468 -47.83012 34009 ft 456 kts 352°
2026-05-06 22:54 -20.68189 -47.83869 34011 ft 457 kts 352°
2026-05-06 22:55 -20.61858 -47.84728 34014 ft 457 kts 352°
2026-05-06 22:55 -20.55543 -47.85579 34018 ft 457 kts 352°
2026-05-06 22:56 -20.49279 -47.86424 34026 ft 457 kts 352°
2026-05-06 22:56 -20.42976 -47.87282 34025 ft 456 kts 352°
2026-05-06 22:57 -20.36686 -47.88135 34024 ft 455 kts 352°
2026-05-06 22:57 -20.30382 -47.88871 34017 ft 456 kts 354°
2026-05-06 22:58 -20.24065 -47.89474 34014 ft 456 kts 354°
2026-05-06 22:58 -20.17747 -47.90085 34022 ft 456 kts 354°
2026-05-06 22:59 -20.11433 -47.90730 34018 ft 456 kts 354°
2026-05-06 22:59 -20.05115 -47.91388 34027 ft 456 kts 354°
2026-05-06 23:00 -19.98802 -47.92044 34021 ft 456 kts 354°
2026-05-06 23:00 -19.92519 -47.92687 32965 ft 462 kts 354°
2026-05-06 23:00 -19.89284 -47.93016 31737 ft 471 kts 354°
2026-05-06 23:01 -19.85990 -47.93353 30489 ft 479 kts 354°
2026-05-06 23:01 -19.82661 -47.93695 29556 ft 480 kts 354°
2026-05-06 23:01 -19.79345 -47.94033 28679 ft 478 kts 354°
2026-05-06 23:01 -19.76050 -47.94369 27945 ft 472 kts 354°
2026-05-06 23:02 -19.72798 -47.94702 27204 ft 467 kts 354°
2026-05-06 23:02 -19.69582 -47.95031 26479 ft 461 kts 354°
2026-05-06 23:02 -19.66410 -47.95355 25768 ft 455 kts 354°
2026-05-06 23:02 -19.63275 -47.95678 25073 ft 450 kts 354°
2026-05-06 23:03 -19.60176 -47.95997 24376 ft 445 kts 354°
2026-05-06 23:03 -19.57112 -47.96310 23696 ft 440 kts 354°
2026-05-06 23:03 -19.54084 -47.96617 23053 ft 435 kts 354°
2026-05-06 23:03 -19.51090 -47.96921 22420 ft 430 kts 354°
2026-05-06 23:04 -19.48131 -47.97224 21831 ft 425 kts 354°
2026-05-06 23:04 -19.45247 -47.97520 21285 ft 419 kts 354°
2026-05-06 23:04 -19.42323 -47.97818 20727 ft 413 kts 354°
2026-05-06 23:04 -19.39519 -47.98104 20208 ft 408 kts 354°
2026-05-06 23:05 -19.36711 -47.98393 19688 ft 402 kts 354°
2026-05-06 23:05 -19.33944 -47.98677 19177 ft 397 kts 354°
2026-05-06 23:05 -19.31207 -47.98954 18669 ft 393 kts 354°
2026-05-06 23:05 -19.28500 -47.99226 18144 ft 389 kts 354°
2026-05-06 23:06 -19.25819 -47.99495 17622 ft 386 kts 354°
2026-05-06 23:06 -19.23158 -47.99766 17088 ft 383 kts 354°
2026-05-06 23:06 -19.20516 -48.00037 16556 ft 380 kts 354°
2026-05-06 23:06 -19.17891 -48.00308 16013 ft 378 kts 354°
2026-05-06 23:07 -19.15279 -48.00578 15472 ft 376 kts 354°
2026-05-06 23:07 -19.12682 -48.00845 14925 ft 374 kts 354°
2026-05-06 23:07 -19.10097 -48.01106 14374 ft 373 kts 354°
2026-05-06 23:07 -19.07521 -48.01362 13820 ft 371 kts 354°
2026-05-06 23:08 -19.04958 -48.01617 13262 ft 369 kts 354°
2026-05-06 23:08 -19.02411 -48.01873 12706 ft 366 kts 354°
2026-05-06 23:08 -18.99883 -48.02128 12141 ft 364 kts 354°
2026-05-06 23:08 -18.97371 -48.02383 11574 ft 361 kts 354°
2026-05-06 23:09 -18.94874 -48.02637 10991 ft 359 kts 354°
2026-05-06 23:09 -18.92406 -48.02888 10589 ft 351 kts 354°
2026-05-06 23:09 -18.90062 -48.03124 10462 ft 335 kts 354°
2026-05-06 23:09 -18.87783 -48.03351 10334 ft 322 kts 354°
2026-05-06 23:10 -18.85595 -48.03571 10205 ft 310 kts 354°
2026-05-06 23:10 -18.83491 -48.03784 10076 ft 299 kts 354°
2026-05-06 23:10 -18.81450 -48.03992 9916 ft 289 kts 354°
2026-05-06 23:10 -18.79464 -48.04197 9608 ft 286 kts 354°
2026-05-06 23:11 -18.77483 -48.04400 9229 ft 286 kts 354°
2026-05-06 23:11 -18.75511 -48.04625 8830 ft 283 kts 348°
2026-05-06 23:11 -18.73780 -48.05461 8455 ft 269 kts 318°
2026-05-06 23:11 -18.72721 -48.07009 8075 ft 257 kts 289°
2026-05-06 23:12 -18.72439 -48.08799 7703 ft 246 kts 273°
2026-05-06 23:12 -18.72344 -48.10591 7337 ft 237 kts 273°
2026-05-06 23:12 -18.72250 -48.12274 7001 ft 230 kts 273°
2026-05-06 23:12 -18.72231 -48.13934 6638 ft 224 kts 260°
2026-05-06 23:13 -18.72879 -48.15411 6184 ft 225 kts 227°
2026-05-06 23:13 -18.74149 -48.16313 5844 ft 220 kts 202°
2026-05-06 23:13 -18.75546 -48.16919 5530 ft 214 kts 202°
2026-05-06 23:13 -18.76908 -48.17508 5234 ft 210 kts 202°
2026-05-06 23:14 -18.78260 -48.18092 4954 ft 209 kts 202°
2026-05-06 23:14 -18.79568 -48.18656 4657 ft 196 kts 202°
2026-05-06 23:14 -18.80788 -48.19189 4360 ft 184 kts 203°
2026-05-06 23:14 -18.81941 -48.19708 4146 ft 175 kts 204°
2026-05-06 23:15 -18.82999 -48.20184 3924 ft 157 kts 204°
2026-05-06 23:15 -18.83972 -48.20623 3710 ft 148 kts 204°
2026-05-06 23:15 -18.84905 -48.21044 3508 ft 144 kts 203°
2026-05-06 23:15 -18.85822 -48.21460 3379 ft 143 kts 204°
2026-05-06 23:16 -18.86731 -48.21872 3263 ft 142 kts 203°
2026-05-06 23:16 -18.87644 -48.22275 3134 ft 142 kts 203°
2026-05-06 23:16 -18.88477 -48.22640 3109 ft 111 kts 202°
2026-05-06 23:16 -18.88909 -48.22834 3107 ft 28 kts 204°
2026-05-06 23:17 -18.89035 -48.22893 3107 ft 7 kts 214°
2026-05-06 23:17 -18.89067 -48.22911 3106 ft 2 kts 144°
2026-05-06 23:17 -18.89040 -48.22893 3107 ft 11 kts 17°
2026-05-06 23:17 -18.88962 -48.22862 3107 ft 12 kts 23°
2026-05-06 23:18 -18.88886 -48.22825 3107 ft 12 kts 25°
2026-05-06 23:18 -18.88814 -48.22792 3108 ft 10 kts 19°
2026-05-06 23:18 -18.88780 -48.22827 3108 ft 7 kts 268°
2026-05-06 23:18 -18.88796 -48.22870 3108 ft 6 kts 246°
2026-05-06 23:19 -18.88811 -48.22906 3108 ft 6 kts 242°
2026-05-06 23:19 -18.88879 -48.22941 3108 ft 10 kts 200°
2026-05-06 23:19 -18.88931 -48.22965 3108 ft 6 kts 203°
2026-05-06 23:19 -18.88968 -48.22981 3108 ft 5 kts 201°
2026-05-06 23:20 -18.88978 -48.23004 3108 ft 3 kts 275°
2026-05-06 23:20 -18.88974 -48.23019 3108 ft 2 kts 289°
2026-05-06 23:20 -18.88969 -48.23031 3108 ft 0 kts 292°